Regional Weather Roundup
Issued by NWS

Home | Current Version | Previous Version | Text Only | Print | Product List | Glossary Off
Versions: 1 2 3 4 5 6 7 8 9 10 11 12 13 14 15 16 17 18 19 20 21 22 23 24 25 26 27 28 29 30 31 32 33 34 35 36 37 38 39 40 41 42 43 44 45 46 47 48 49 50

000
ASUS45 KBOU 211807
RWRCO

WEATHER ROUNDUP FOR COLORADO
NATIONAL WEATHER SERVICE DENVER/BOULDER CO
1100 AM MST SUN DEC 21 2014

NOTE: "FAIR" INDICATES FEW OR NO CLOUDS BELOW 12000 FEET WITH NO
SIGNIFICANT WEATHER AND/OR OBSTRUCTIONS TO VISIBILITY.

COZ001>005-013-030-031-211900-
...NORTHWEST COLORADO...

CITY           SKY/WX    TMP DP  RH WIND       PRES   REMARKS
CRAIG          CLOUDY    37  28  70 SW23      29.84F
HAYDEN         CLOUDY    28  27  93 CALM      29.84F
MEEKER         CLOUDY    35  27  72 SW10      29.91F WCI  27
MOUNT WERNER   NOT AVBL
STEAMBOAT SPGS CLOUDY    28  27  94 S3        29.83F VSB 1/2
WALDEN         CLOUDY    30  27  86 S10       29.75F WCI  21
$$

COZ006>008-011-211900-
...WEST CENTRAL VALLEYS...

CITY           SKY/WX    TMP DP  RH WIND       PRES   REMARKS
GRAND JUNCTION LGT SNOW  33  32  96 CALM      30.04R FOG
MONTROSE       CLOUDY    32  29  88 SE6       30.03F WCI  26
EAGLE          LGT SNOW  32  30  93 W6        29.93F FOG     WCI  26
RIFLE          MIX PCPN  33  29  85 SW10      29.97F WCI  25
DELTA          CLOUDY    34  32  94 CALM      30.04F FOG
NUCLA          CLOUDY    34  28  80 CALM      30.08F
$$

COZ017>023-064>068-211900-
...SOUTHWEST COLORADO...

CITY           SKY/WX    TMP DP  RH WIND       PRES   REMARKS
DURANGO        CLOUDY    29  27  92 E6        30.04F WCI  23
CORTEZ         MOSUNNY   38  30  73 E7        30.05F
PAGOSA SPRINGS CLOUDY    31  24  76 CALM      30.05S
TELLURIDE      LGT SNOW  29  27  95 E3        30.05F VSB 1
WOLF CREEK PAS CLOUDY    21  21 100 MISG      30.00F
$$

COZ009-010-012-014-032>034-037-058>063-211900-
...CENTRAL COLORADO...

CITY           SKY/WX    TMP DP  RH WIND       PRES   REMARKS
ASPEN          LGT SNOW  25  22  88 CALM      29.91F FOG
BUENA VISTA    CLOUDY    37  19  47 W20G28    29.84F
COPPER MTN     CLOUDY    23  18  80 SW24G33   29.83F WCI   7
BERTHOUD PASS  CLOUDY    14  10  85 MISG      29.74F
COTTONWOOD PAS CLOUDY    32  19  59 NW14G31   29.83F HAZE    WCI  22
GUNNISON       CLOUDY    25  21  86 CALM      29.98F VSB 1
KREMMLING      LGT SNOW  32  28  86 W7G22     29.81F VSB 3/4 WCI  26
LEADVILLE      LGT SNOW  23  20  88 N10       29.84F VSB 3/4 WCI  12
MONARCH PASS   CLOUDY    18  14  86 MISG      29.99F
SALIDA         CLOUDY    41  19  40 W25G36    29.90F
SUNLIGHT       SNOW     N/A N/A N/A SW3       29.91F VSB 1/4
WILKERSON PASS CLOUDY    23  18  80 W21G38    29.80F WCI   8
$$

COZ069>075-211900-
...SAN LUIS VALLEY/SANGRE DE CRISTO MOUNTAINS...

CITY           SKY/WX    TMP DP  RH WIND       PRES   REMARKS
ALAMOSA        CLOUDY    32  22  66 S3        29.96R
LA VETA PASS   CLOUDY    27  18  69 S21G31    29.84R WCI  13
SAGUACHE       CLOUDY    32  18  55 SE10      29.95F WCI  24
$$

COZ035-036-038>040-211900-
...NORTHERN COLORADO FRONT RANGE...

CITY           SKY/WX    TMP DP  RH WIND       PRES   REMARKS
DENVER INTL AP CLOUDY    49  19  30 SW12      29.62F
DMNS CITY PARK   N/A     43  21  42 SW5       29.62F
AURORA         PTSUNNY   47  19  32 S7        29.64F
FRONT RANGE AP CLOUDY    50  23  34 SW9       29.64F
ERIE MUNI ARPT   N/A     50  20  31 W23G31    29.61F
BOULDER MUN AP CLOUDY    48  21  34 W30G44    29.59F
CENTENNIAL     CLOUDY    43  21  41 SE10      29.63F
BROOMFIELD     PTSUNNY  N/A N/A N/A MISG        N/A
FORT COLLINS   CLOUDY    34  21  60 N8        29.63F WCI  27
LONGMONT       CLOUDY    51  21  31 NW7G18    29.62F
$$

COZ041-046-047-076>085-087-088-211900-
...PIKES PEAK/PALMER DIVIDE AND SOUTHERN FOOTHILLS...

CITY           SKY/WX    TMP DP  RH WIND       PRES   REMARKS
COLO. SPRINGS  CLOUDY    41  18  39 SE8       29.69F
A. F. ACADEMY  CLOUDY    45  15  29 CALM      29.67F
ELLICOTT       NOT AVBL
FALCON         CLOUDY    42  15  33 SW3       29.70F
FORT CARSON    CLOUDY    39  20  47 S2        29.67F
LIMON          PTSUNNY   47  19  33 S10       29.66F
MONUMENT HILL  CLOUDY    39  19  45 SW7       29.67F
TRINIDAD       SUNNY     52  18  26 W9        29.74F
$$

COZ042>045-048>051-090-091-211900-
...NORTHEAST COLORADO...

CITY           SKY/WX    TMP DP  RH WIND       PRES   REMARKS
GREELEY ARPT   CLOUDY    34  19  55 CALM      29.61F
AKRON          CLOUDY    43  26  51 S12       29.62F
BURLINGTON     MOSUNNY   50  24  36 S10       29.66F
WRAY           PTSUNNY   42  31  66 SW5       29.65F
STERLING       CLOUDY    32  28  86 S5        29.62F WCI  27
HOLYOKE        PTSUNNY   37  30  75 SW8       29.63F
FORT MORGAN    CLOUDY    30  23  76 N5        29.62F WCI  25
$$

COZ086-089-092>099-211900-
...SOUTHEAST COLORADO...

CITY           SKY/WX    TMP DP  RH WIND       PRES   REMARKS
PUEBLO         CLOUDY    48  21  34 W15       29.67F
LA JUNTA       SUNNY     43  28  55 SW3       29.69F
LAMAR          SUNNY     43  30  60 MISG      29.68F
SPRINGFIELD      N/A     55  21  26 W13       29.69F
$$


USA.gov is the U.S. government's official web portal to all federal, state and local government web resources and services.